www.pogodaiklimat.ru

Погода и климат >> Архив погоды >> Австрия >> Майрхофен


ПОГОДА в Майрхофене

  • Прогноз погоды в Майрхофене
  • Монитор погоды в Майрхофене

АРХИВ ПОГОДЫ в Майрхофене

Время (UTC), дата Ветер
(напр.,м/с)
 
Видим.   Явления Облачность Т
(С)
Тd
(С)
f
(%)
Тe
(С)
Тes
(С)
Комфортность P
(гПа)
Po
(гПа)
Тmin
(С)
Tmax
(С)
R
(мм)
R24
(мм)
S
(см)
07 11.07 С 1 н/о н/о +13.0 +7.8 71 +13 +13 1017.7 943.5
08 11.07 З 2 н/о н/о +15.0 +8.2 64 +15 +15 1016.2 942.6
09 11.07 В 1 н/о н/о +17.3 +8.3 55 +18 +18 1015.1 942.2
10 11.07 С 1 н/о н/о +18.3 +9.1 55 +20 +20 1014.1 941.5
11 11.07 штиль 0 н/о н/о +20.0 +7.8 45 +21 +21 комфорт 1013.4 941.2
12 11.07 Ю 1 н/о н/о +20.8 +7.7 43 +23 +23 комфорт 1012.7 940.8
13 11.07 штиль 0 н/о н/о +21.3 +8.0 42 +22 +22 комфорт 1012.7 940.9
14 11.07 З 1 н/о осадки н/о +18.8 +13.4 71 +21 +21 комфорт 1013.9 941.5 0.1
15 11.07 С 1 н/о осадки н/о +17.4 +13.2 76 +18 +18 1014.9 942.1 0.6
16 11.07 штиль 0 н/о осадки н/о +17.2 +13.8 80 +17 +17 1014.7 941.9 0.1
17 11.07 СВ 1 н/о осадки н/о +16.1 +13.6 85 +17 +17 1015.6 942.5 0.8
18 11.07 З 1 н/о осадки н/о +15.3 +13.5 89 +16 +16 1015.8 942.5 +11.7 +21.5 2
19 11.07 СЗ 1 н/о в посл. час осадки н/о +14.8 +13.6 93 +15 +15 1015.7 942.3 0.5
20 11.07 С 1 н/о в посл. час осадки н/о +14.5 +13.2 92 +15 +15 1016.5 942.9 0.4
21 11.07 штиль 0 н/о {ливн. осадки} н/о +14.1 +12.9 92 +14 +14 1016.6 942.9 0.9
22 11.07 ЮЗ 1 н/о н/о +13.6 +12.3 92 +14 +14 1016.9 943.0
23 11.07 ЮЗ 1 н/о н/о +13.1 +11.9 92 +13 +13 1017.0 943.0
00 12.07 ЮЗ 1 н/о {ливн. осадки} н/о +12.7 +11.7 94 +13 +13 1017.0 942.9 0.9
01 12.07 ЮЗ 1 н/о н/о +12.8 +11.8 94 +13 +13 1016.8 942.7
02 12.07 штиль 0 н/о н/о +12.9 +11.7 92 +12 +12 1016.7 942.7
03 12.07 ЮЗ 1 н/о н/о +12.9 +11.6 92 +13 +13 1016.1 942.1
04 12.07 штиль 0 н/о н/о +13.1 +11.8 92 +13 +13 1016.9 942.9 0.0
05 12.07 Ю 1 н/о в посл. час осадки н/о +13.2 +12.0 92 +13 +13 1016.6 942.7 0.1
06 12.07 З 1 н/о осадки н/о +13.7 +12.4 92 +14 +14 1016.2 942.4 +12.4 +15.7 1
07 12.07 штиль 0 н/о в посл. час осадки н/о +14.2 +12.3 88 +14 +14 1016.2 942.5 0.1
08 12.07 С 1 н/о в посл. час осадки н/о +14.3 +12.0 86 +15 +15 1016.4 942.7 0.1
09 12.07 ЮЗ 1 н/о осадки {ливн. осадки} н/о +15.3 +12.7 84 +16 +16 1015.8 942.4 0.2
10 12.07 С 1 н/о осадки н/о +15.7 +13.3 86 +16 +16 1015.6 942.4 0.2
11 12.07 ЮЗ 1 н/о ливневой дождь н/о +16.2 +13.4 83 +17 +17 1015.3 942.2 0.1
12 12.07 ЮЗ 1 н/о ливневой дождь н/о +17.1 +13.6 80 +18 +18 1014.9 942.1 0.6
13 12.07 штиль 0 н/о осадки н/о +16.3 +13.8 85 +16 +16 1015.6 942.5 2
14 12.07 З 2 н/о ливневой дождь {осадки} н/о +17.7 +14.2 80 +18 +18 1014.8 942.1 0.7
15 12.07 ЮЗ 1 н/о {ливн. осадки} н/о +18.0 +13.7 76 +19 +19 1014.2 941.6 2
16 12.07 ЮЗ 1 н/о н/о +18.1 +14.0 77 +19 +19 1012.9 940.5
17 12.07 З 1 н/о н/о +17.6 +14.0 79 +19 +19 1012.5 940.0
18 12.07 ЮЗ 1 н/о {ливн. осадки} н/о +16.8 +12.7 77 +18 +18 1012.6 939.8 +13.6 +18.6 3
19 12.07 З 1 н/о осадки н/о +15.6 +13.0 85 +16 +16 1013.5 940.4 0.2
20 12.07 ЮЗ 2 н/о осадки н/о +14.6 +12.3 86 +14 +14 1015.6 942.1 0.7
21 12.07 ЮЗ 1 н/о осадки н/о +13.4 +12.2 92 +14 +14 1017.2 943.3 4
22 12.07 ЮЗ 2 н/о ливневой дождь {осадки} н/о +12.7 +11.6 93 +12 +12 1016.8 942.7 3
23 12.07 штиль 0 н/о ливневой дождь н/о +12.6 +11.3 92 +12 +12 1016.8 942.7 0.0
00 13.07 ЮЗ 2 н/о осадки {ливн. осадки} н/о +12.3 +11.4 94 +11 +11 1017.1 942.9 10
01 13.07 ЮВ 1 н/о осадки н/о +12.3 +11.4 94 +12 +12 1016.8 942.6 4
02 13.07 штиль 0 н/о ливневой дождь н/о +12.0 +11.1 94 +11 +11 1016.1 941.9 1
03 13.07 В 1 н/о осадки {ливн. осадки} н/о +12.3 +11.4 94 +12 +12 1016.9 942.7 6
04 13.07 З 1 н/о осадки н/о +12.0 +11.2 95 +12 +12 1017.0 942.7 2
05 13.07 З 1 н/о в посл. час осадки н/о +12.1 +11.2 94 +12 +12 1016.4 942.2 0.0
06 13.07 штиль 0 н/о {ливн. осадки} н/о +12.9 +11.7 92 +12 +12 1016.1 942.1 +11.9 +17.1 19
07 13.07 ЮВ 1 н/о н/о +13.4 +11.7 89 +14 +14 1016.4 942.5 0.0
08 13.07 штиль 0 н/о осадки н/о +13.7 +11.7 88 +13 +13 1016.5 942.7 0.3
09 13.07 В 1 н/о ливневой дождь {осадки} н/о +15.2 +12.2 82 +16 +16 1016.5 943.1 0.4
10 13.07 В 1 н/о н/о +16.0 +11.3 74 +17 +17 1016.4 943.1 0.0
11 13.07 ЮЗ 2 н/о н/о +16.4 +11.2 71 +17 +17 1016.0 942.9
12 13.07 В 1 н/о {ливн. осадки} н/о +17.4 +12.2 72 +18 +18 1015.5 942.7 0.4
14 13.07 З 1 н/о в посл. час осадки н/о +17.2 +10.7 66 +18 +18 1016.0 943.0 0.1
15 13.07 штиль 0 н/о {ливн. осадки} н/о +16.5 +12.4 77 +16 +16 1016.4 943.3 0.3
17 13.07 ЮЗ 1 н/о н/о +15.3 +12.0 81 +16 +16 1017.3 943.8 0.0
18 13.07 ЮЗ 1 н/о {ливн. осадки} н/о +14.7 +12.1 84 +15 +15 1017.7 944.0 +12.6 +17.7 0.7
19 13.07 Ю 1 н/о н/о +14.3 +12.0 86 +15 +15 1018.0 944.2
20 13.07 штиль 0 н/о н/о +13.4 +11.1 86 +13 +13 1018.7 944.6
21 13.07 Ю 1 н/о н/о +13.2 +11.3 88 +13 +13 1018.7 944.6 0.0
22 13.07 штиль 0 н/о н/о +13.0 +11.3 89 +12 +12 1018.8 944.6
23 13.07 З 1 н/о в посл. час осадки н/о +12.9 +11.2 89 +13 +13 1019.1 944.9 0.1
00 14.07 С 1 н/о {осадки} н/о +12.6 +11.2 91 +13 +13 1018.8 944.5 0.1
01 14.07 штиль 0 н/о в посл. час осадки н/о +12.6 +11.4 92 +12 +12 1018.7 944.4 0.1
02 14.07 штиль 0 н/о н/о +12.4 +11.2 92 +12 +12 1018.1 943.8
03 14.07 штиль 0 н/о {осадки} н/о +12.3 +11.2 93 +12 +12 1017.9 943.6 0.1
04 14.07 штиль 0 н/о н/о +12.1 +11.0 93 +11 +11 1017.6 943.3
05 14.07 ЮЗ 1 н/о н/о +12.3 +11.3 94 +12 +12 1017.3 943.1
06 14.07 СВ 1 н/о {осадки} н/о +13.5 +11.5 88 +14 +14 1016.9 943.0 +11.9 +14.8 0.2
07 14.07 СВ 1 н/о н/о +14.2 +11.2 82 +15 +15 1016.7 943.0
08 14.07 СВ 1 н/о н/о +15.9 +11.6 76 +17 +17 1016.2 942.9
09 14.07 СВ 1 н/о н/о +15.6 +11.0 74 +16 +16 1016.3 942.9
10 14.07 СВ 1 н/о н/о +16.9 +11.1 69 +18 +18 1015.6 942.6 0.0
11 14.07 СВ 1 н/о н/о +18.2 +10.8 62 +20 +20 1014.8 942.2
12 14.07 С 1 н/о н/о +19.8 +8.9 49 +22 +22 комфорт 1013.7 941.5 0.0
13 14.07 СВ 3 н/о н/о +20.8 +10.7 52 +23 +23 комфорт 1012.3 940.5
14 14.07 СВ 2 н/о н/о +20.2 +8.7 48 +22 +22 комфорт 1012.4 940.4
15 14.07 СВ 2 н/о н/о +20.6 +9.5 49 +23 +23 комфорт 1012.1 940.2
16 14.07 СВ 1 н/о н/о +19.9 +10.0 53 +22 +22 комфорт 1012.2 940.1
17 14.07 СВ 1 н/о н/о +19.3 +9.6 53 +21 +21 комфорт 1012.6 940.4
18 14.07 ЮЗ 1 н/о н/о +17.8 +11.5 67 +19 +19 1013.3 940.7 +13.2 +21.5 0.0
19 14.07 ЮЗ 1 н/о н/о +16.7 +11.7 72 +18 +18 1014.0 941.1
20 14.07 ЮЗ 1 н/о н/о +15.5 +10.8 74 +16 +16 1014.7 941.4
21 14.07 штиль 0 н/о н/о +13.9 +10.4 79 +14 +14 1015.3 941.6
22 14.07 штиль 0 н/о н/о +12.9 +10.3 84 +12 +12 1015.5 941.5
23 14.07 штиль 0 н/о н/о +11.9 +9.7 86 +11 +11 1015.8 941.5
00 15.07 ЮЗ 1 н/о н/о +11.3 +9.5 89 +11 +11 1015.8 941.4
01 15.07 ЮЗ 1 н/о н/о +12.5 +9.4 81 +13 +13 1015.3 941.2
02 15.07 штиль 0 н/о н/о +12.2 +9.8 85 +12 +12 1015.2 941.1
03 15.07 штиль 0 н/о н/о +12.3 +9.9 85 +12 +12 1015.3 941.2
04 15.07 С 1 н/о н/о +11.9 +9.8 87 +12 +12 1015.1 940.9
05 15.07 штиль 0 н/о н/о +11.4 +9.7 89 +11 +11 1015.1 940.8
06 15.07 ЮЗ 1 н/о н/о +12.9 +10.1 83 +13 +13 1015.1 941.1 +11.2 +18.1
07 15.07 СВ 1 н/о н/о +15.6 +10.4 71 +16 +16 1014.2 941.0
08 15.07 В 1 н/о н/о +18.0 +11.4 65 +19 +19 1013.7 941.1
09 15.07 В 1 н/о н/о +19.1 +11.1 60 +21 +21 комфорт 1013.0 940.7
10 15.07 СВ 2 н/о н/о +20.3 +10.5 53 +22 +22 комфорт 1012.5 940.5
11 15.07 СВ 1 н/о н/о +21.5 +10.8 51 +23 +23 комфорт 1011.7 940.1
12 15.07 СВ 2 н/о н/о +22.4 +10.5 47 +24 +24 комфорт 1011.1 939.7
13 15.07 В 2 н/о н/о +22.4 +10.2 46 +24 +24 комфорт 1011.0 939.6
14 15.07 СВ 2 н/о н/о +21.8 +10.4 48 +24 +24 комфорт 1011.2 939.7 0.0
15 15.07 В 2 н/о н/о +21.0 +10.0 49 +23 +23 комфорт 1011.9 940.1 0.0
16 15.07 СВ 1 н/о н/о +20.4 +11.5 57 +23 +23 комфорт 1012.2 940.3
17 15.07 СВ 1 н/о осадки н/о +17.2 +13.2 77 +18 +18 1014.2 941.4 0.2
18 15.07 штиль 0 н/о в посл. час осадки н/о +16.5 +13.0 80 +16 +16 1014.8 941.8 +12.5 +23.5 0.3
19 15.07 СВ 1 н/о н/о +15.5 +11.9 79 +16 +16 1015.5 942.2
20 15.07 штиль 0 н/о н/о +14.2 +11.2 82 +14 +14 1016.7 943.0
21 15.07 штиль 0 н/о н/о +13.4 +11.3 87 +13 +13 1017.3 943.3
22 15.07 штиль 0 н/о н/о +12.2 +10.4 89 +12 +12 1018.0 943.7
23 15.07 штиль 0 н/о н/о +11.9 +10.1 89 +11 +11 1018.2 943.8
00 16.07 ЮЗ 1 н/о н/о +12.1 +10.2 88 +12 +12 1018.2 943.8
01 16.07 штиль 0 н/о н/о +11.5 +9.8 89 +11 +11 1018.3 943.8
02 16.07 ЮЗ 1 н/о н/о +10.9 +9.2 89 +11 +11 1018.5 943.8
03 16.07 ЮЗ 1 н/о н/о +10.5 +8.8 89 +10 +10 1018.9 944.0
04 16.07 штиль 0 н/о н/о +10.1 +8.5 90 +9 +9 1019.1 944.1
05 16.07 штиль 0 н/о н/о +11.4 +9.6 89 +11 +11 1018.9 944.3
06 16.07 штиль 0 н/о н/о +13.6 +10.2 80 +13 +13 1018.3 944.3 +9.7 +16.6
07 16.07 штиль 0 н/о н/о +14.9 +10.3 74 +15 +15 1017.9 944.2
08 16.07 СВ 1 н/о н/о +18.8 +10.9 60 +21 +21 комфорт 1016.1 943.5 0.0
09 16.07 СВ 1 н/о н/о +21.1 +10.5 51 +23 +23 комфорт 1015.0 943.0 0.0
10 16.07 В 1 н/о н/о +23.1 +11.2 47 +25 +25 комфорт 1013.9 942.5
11 16.07 СВ 2 н/о н/о +24.0 +7.2 34 +24 +24 комфорт 1013.6 942.3
12 16.07 СВ 1 н/о н/о +24.7 +6.7 32 +25 +25 комфорт 1013.1 942.0 0.0
13 16.07 СВ 2 н/о н/о +25.3 +6.3 30 +25 +25 комфорт 1012.4 941.5
14 16.07 СВ 3 н/о н/о +25.7 +6.5 29 +25 +25 комфорт 1012.1 941.3
15 16.07 СВ 1 н/о н/о +26.2 +6.5 28 +26 +26 жарко 1011.7 941.1
16 16.07 СВ 1 н/о н/о +25.3 +8.1 33 +25 +25 комфорт 1011.7 940.9
17 16.07 штиль 0 н/о н/о +23.0 +10.4 45 +25 +25 комфорт 1012.4 941.1
18 16.07 штиль 0 н/о н/о +21.5 +10.8 51 +23 +23 комфорт 1013.1 941.4 +13.0 +26.6 0.0
19 16.07 З 1 н/о н/о +19.1 +11.9 63 +21 +21 комфорт 1014.4 942.0
20 16.07 ЮЗ 1 н/о н/о +17.0 +11.6 70 +18 +18 1015.9 942.9
21 16.07 штиль 0 н/о н/о +16.7 +10.6 67 +17 +17 1016.3 943.2
22 16.07 Ю 1 н/о н/о +15.4 +10.5 73 +16 +16 1017.0 943.5
23 16.07 З 1 н/о н/о +14.5 +10.3 76 +15 +15 1017.3 943.6
00 17.07 ЮЗ 1 н/о н/о +14.1 +10.0 76 +14 +14 1017.5 943.7
01 17.07 З 1 н/о н/о +13.1 +9.8 80 +13 +13 1017.6 943.5
02 17.07 ЮЗ 1 н/о н/о +12.4 +9.6 83 +12 +12 1017.6 943.3
03 17.07 З 1 н/о н/о +11.5 +9.2 86 +11 +11 1017.7 943.2
04 17.07 З 1 н/о н/о +11.4 +9.2 86 +11 +11 1017.7 943.2
05 17.07 ЮЗ 1 н/о н/о +11.7 +9.4 86 +12 +12 1017.3 942.9
06 17.07 В 1 н/о н/о +16.2 +10.6 69 +17 +17 1015.6 942.4 +10.9 +21.8
07 17.07 штиль 0 н/о н/о +18.4 +10.1 58 +19 +19 1014.7 942.1
08 17.07 В 1 н/о н/о +19.5 +10.1 55 +22 +22 комфорт 1013.9 941.6
09 17.07 СВ 1 н/о н/о +21.1 +10.2 50 +23 +23 комфорт 1012.8 941.0
10 17.07 СВ 1 н/о н/о +22.7 +11.7 50 +25 +25 комфорт 1011.4 940.1
11 17.07 В 1 н/о н/о +24.9 +10.3 40 +26 +26 жарко 1010.3 939.5
12 17.07 СВ 2 н/о н/о +26.2 +10.1 36 +27 +27 жарко 1009.2 938.8
13 17.07 СВ 2 н/о н/о +27.8 +8.9 30 +28 +28 жарко 1008.1 938.1
14 17.07 В 2 н/о н/о +27.8 +10.6 34 +28 +28 жарко 1007.7 937.8
15 17.07 В 2 н/о н/о +27.0 +11.0 37 +28 +28 жарко 1007.8 937.7
16 17.07 В 1 н/о н/о +26.4 +11.5 39 +28 +28 жарко 1007.8 937.6
17 17.07 В 2 н/о н/о +24.6 +11.4 44 +26 +26 жарко 1008.6 937.9
18 17.07 СВ 1 н/о осадки н/о +22.9 +12.0 50 +25 +25 комфорт 1010.2 939.0 +15.4 +28.2 0.0
19 17.07 штиль 0 н/о в посл. час осадки н/о +18.7 +14.6 77 +19 +19 1011.8 939.6 0.6
20 17.07 ЮЗ 4 н/о н/о +19.4 +12.7 65 +21 +21 комфорт 1012.3 940.2
21 17.07 З 3 н/о {осадки} н/о +18.4 +12.3 68 +19 +19 1013.1 940.7 0.6
22 17.07 ЮЗ 2 н/о н/о +17.3 +12.3 72 +18 +18 1013.4 940.7
23 17.07 Ю 1 н/о н/о +16.7 +12.0 74 +18 +18 1013.4 940.5
00 18.07 Ю 1 н/о {осадки} н/о +15.1 +11.7 80 +16 +16 1014.1 940.8 0.6
01 18.07 ЮЗ 2 н/о н/о +15.3 +11.4 78 +15 +15 1014.0 940.7
02 18.07 штиль 0 н/о н/о +13.5 +10.9 84 +13 +13 1014.2 940.5
03 18.07 ЮЗ 1 н/о н/о +12.8 +10.2 84 +13 +13 1014.4 940.5
04 18.07 штиль 0 н/о н/о +12.6 +9.9 84 +12 +12 1014.8 940.8
05 18.07 ЮЗ 1 н/о н/о +13.1 +10.1 82 +13 +13 1014.8 940.9
06 18.07 штиль 0 н/о н/о +16.0 +11.5 75 +16 +16 1014.0 940.9 +11.9 +23.2 0.6
07 18.07 штиль 0 н/о н/о +17.3 +11.2 67 +17 +17 1013.7 940.9
08 18.07 СВ 1 н/о н/о +19.0 +10.6 58 +21 +21 комфорт 1013.2 940.9

 

Местоположение метеостанции Майрхофен (Австрия): широта 47.17 долгота 11.85 высота над уровнем моря 633 м.

В архиве по умолчанию представлена погода в Майрхофене за последнюю неделю. Архивные данные за месяц целиком и за предыдущие месяцы, начиная с января 2011 года, Вы можете получить, выбрав интересующий диапазон дат из раскрывающегося списка и нажав кнопку "Ввод!".


*Определитесь, кто Вы:
робот инопланетянин человек

Внимание! Время в таблицах - всемирное. Для получения местного времени необходимо прибавить поправку, которая равна 1 ч.

Смотрите также архив погоды в соседних городах и на ближайших метеорологических станциях:

Погода в Енбахе (Австрия) (25 км)
Погода в Кримле (Австрия) (26 км)
Погода в Пачеркофеле (Австрия) (29 км)
Погода в Бреннере новая (Австрия) (32 км)
Погода в Ахенкирьхе (Австрия) (38 км)
Погода в Инсбруке АМС (Австрия) (39 км)
Погода в Инсбруке (Австрия) (39 км)
Погода в Ахенкирьхе (Австрия) (41 км)
Погода в Випитено (Италия) (45 км)
Погода в Виргене (Австрия) (49 км)

Пояснения к столбцам:

Ветер - указаны скорость ветра в м/с - средняя за 10 мин, порывы в срок и между сроками (в фигурных скобках) и направление, откуда дует ветер: С - северный, СВ - северо-восточный, В - восточный, ЮВ - юго-восточный, Ю - южный, ЮЗ - юго-западный, З - западный, СЗ - северо-западный.
Видимость - горизонтальная дальность видимости в метрах или километрах. При видимости от 1 до 10 км при отсутствии осадков обычно наблюдается дымка, при ухудшении видимости до 1 км и менее - туман. В сухую погоду видимость может ухудшаться дымом, пылью или мглою.
Явления - указаны атмосферные явления, наблюдавшиеся в срок или в последний час перед сроком; фигурными скобками обозначены явления, наблюдавшиеся между сроками (за 1-3 часа до срока); квадратными скобками обозначены град или гололедные отложения с указанием их диаметра в мм.
Облачность - указаны через наклонную черту общая и нижняя облачность в баллах и высота нижней границы облаков в метрах; квадратными скобками обозначены формы облаков: Ci - перистые, Cs - перисто-слоистые, Cc - перисто-кучевые, Ac - высококучевые, As - высокослоистые, Sc - слоисто-кучевые, Ns - слоисто-дождевые, Cu - кучевые, Cb - кучево-дождевые. Подробнее классификацию облаков см. в Атласе облаков (PDF).
T - Температура воздуха - температура, измеренная на высоте 2 м над землей.
Td - Температура точки росы - температура, при понижении до которой содержащийся в воздухе водяной пар достигнет насыщения.
f - Относительная влажность воздуха - влажноcть воздуха, измеренная на высоте 2 м над землей.
Te - Эффективная температура - температура, которую ощущает одетый по сезону человек в тени. Характеристика душности погоды. При расчете учитывается влияние влажности воздуха и скорости ветра на теплоощущения человека.
Tes - Эффективная температура на солнце - температура, которую ощущает человек, с поправкой на солнечный нагрев. Характеристика знойности погоды. Зависит от высоты солнца над горизонтом, облачности и скорости ветра. Ночью, в пасмурную погоду, а также при ветре 12 м/с и более поправка равна нулю.
P - Атмосферное давление - приведенное к уровню моря атмосферное давление.
Po - Атмосферное давление - измеренное на уровне метеостанции атмосферное давление.
Tmin - Минимальная температура - минимум температуры воздуха на высоте 2 м над землей.
Tmax - Максимальная температура - максимум температуры воздуха на высоте 2 м над землей.
R - Количество осадков - Количество выпавших осадков за период времени, мм. При наведении курсора мыши на число - период времени, за который выпало указанное количество осадков.
R24 - Количество осадков - Количество выпавших осадков за 24 часа, мм.
S - Снежный покров - Высота снежного покрова, см. При наведении курсора мыши на число - состояние снежного покрова и степень покрытия местности в баллах.